Regional Weather Roundup
Issued by NWS Green Bay, WI

Home | Current Version | Previous Version | Graphics & Text | Print | Product List | Glossary Off
Versions: 1 2 3 4 5 6 7 8 9 10 11 12 13 14 15 16 17 18 19 20 21 22 23 24 25 26 27 28 29 30 31 32 33 34 35 36 37 38 39 40 41 42 43 44 45 46 47 48 49 50

000
ASUS43 KGRB 241611
RWRGRB

NORTH-CENTRAL AND NORTHEAST WISCONSIN REGIONAL WEATHER ROUNDUP
NATIONAL WEATHER SERVICE GREEN BAY WI
1100 AM CDT SAT JUN 24 2017

WIZ005-009-010>012-018-019-241700-
NORTH CENTRAL WISCONSIN

CITY           SKY/WX    TMP DP  RH WIND       PRES   REMARKS
IRONWOOD       LGT RAIN  55  51  86 W10       29.90R
MANITOWISH WTR CLOUDY    54  53  96 W6        29.90S
ARBOR VITAE    CLOUDY    57  53  86 NW5       29.90R
EAGLE RIVER    CLOUDY    56  49  75 W9        29.89R
LAND O LAKES   CLOUDY    55  52  90 W6        29.90S
RHINELANDER    CLOUDY    57  51  80 W13       29.91R
PHILLIPS       CLOUDY    57  48  72 W8        29.92R
ANTIGO         CLOUDY    55  51  88 W10       29.92R
TOMAHAWK       NOT AVBL
MERRILL        CLOUDY    57  51  79 W7        29.93S
$$

WIZ013-073-241700-
NORTHEAST WISCONSIN

CITY           SKY/WX    TMP DP  RH WIND       PRES   REMARKS
IRON MOUNTAIN  CLOUDY    61  54  77 N7        29.85R
MARINETTE      RAIN      62  56  80 NW5       29.86R
OCONTO         CLOUDY    65  55  68 W14       29.86S
$$

WIZ017-030-035>037-045-241700-
CENTRAL WISCONSIN

CITY           SKY/WX    TMP DP  RH WIND       PRES   REMARKS
MEDFORD        MOSUNNY   59  44  58 W10G22    29.94R
WAUSAU         CLOUDY    59  48  67 NW12      29.91S
MOSINEE        CLOUDY    61  48  63 W16       29.94R
MARSHFIELD     MOSUNNY   62  42  47 NW15G24   29.94S
WISC RAPIDS    PTSUNNY   62  43  49 NW16G26   29.96R
STEVENS POINT  CLOUDY    60  44  55 W10G21    29.94R
WAUPACA        CLOUDY    65  49  56 W12G18    29.92R
SHAWANO        CLOUDY    64  53  67 W10G16    29.89S
CLINTONVILLE   CLOUDY    63  50  63 W14G20    29.90R
WAUTOMA        PTSUNNY   64  45  49 W15G26    29.95R
$$

WIZ038-039-048-051-241700-
FOX VALLEY

CITY           SKY/WX    TMP DP  RH WIND       PRES   REMARKS
NWS GREEN BAY  MOSUNNY   66  56  70 W16       29.88S
APPLETON       PTSUNNY   64  46  52 W17G23    29.89R
OSHKOSH        MOSUNNY   65  48  54 W17G24    29.91R
FOND DU LAC    MOSUNNY   67  46  47 NW14G22   29.93R
$$

WIZ022-050-052-241700-
EAST CENTRAL WISCONSIN

CITY           SKY/WX    TMP DP  RH WIND       PRES   REMARKS
EPHRAIM        CLOUDY    62  54  75 NW6       29.85R
WASHINGTON ISL CLOUDY    61  53  75 W6        29.84R
STURGEON BAY     N/A     64  55  72 NW8         N/A
MANITOWOC      MOSUNNY   67  54  63 W12G21    29.89R
SHEBOYGAN      MOSUNNY   66  54  65 W14G21    29.91R
$$

LMZ563-521-522-541>543-241700-
LAKESHORE

STATION/POSITION TIME  TEMP    WIND        PRES    VSBY  WAVE
                       AIR SEA DIR/SP/G                  HT/PER
                 (UTC) (F)     (DEG/KT/KT) (MB)    (MI)  (FT/S)
SHEBOYGAN LKSHOR 1600   65     270/ 14/ 18 1012.3R
KEWAUNEE LKSHORE 1548   64     280/  5/ 10 1011.1R
NORTHPORT PIER   1540   62     330/  6/ 10 1010.5S
N MID LAKE BUOY  1550   58 57  280/  6/  6 1011.1R         1
S GREEN BAY BUOY 1600   63     270/ 10/ 14 1011.0
CHAMBERS ISLAND  1540   65     270/  2/  6 1010.5R
MENOMINEE LKSHOR 1548          240/  4/  6 1010.1R
$$




USA.gov is the U.S. government's official web portal to all federal, state and local government web resources and services.